EW7114 Weather Reports


Display with metric or nautical units.
time (UTC)temp
F
wind
direction
speed
MPH
gust
MPH
rain 1hr
in
rain 24hr
in
rain mn
in
humidity
%
barometer
mb
20260508181517 71 21 11.0 21.0 0.00 0.00 0.00 30 1010.2
20260508181015 71 23 12.0 21.0 0.00 0.00 0.00 29 1010.3
20260508180514 71 32 12.0 20.0 0.00 0.00 0.00 29 1010.2
20260508180018 71 12 11.0 20.0 0.00 0.00 0.00 29 1010.4
20260508175511 72 326 12.0 18.0 0.00 0.00 0.00 31 1010.4
20260508175010 71 13 11.0 19.0 0.00 0.00 0.00 30 1010.5
20260508174512 72 10 10.0 19.0 0.00 0.00 0.00 30 1010.5
20260508174013 71 39 9.0 20.0 0.00 0.00 0.00 32 1010.5
20260508173505 71 14 11.0 23.0 0.00 0.00 0.00 32 1010.5
20260508173008 70 24 9.0 20.0 0.00 0.00 0.00 32 1010.5
20260508172503 70 345 11.0 20.0 0.00 0.00 0.00 32 1010.6
20260508172002 70 332 9.0 16.0 0.00 0.00 0.00 33 1010.6
20260508171600 70 1 10.0 18.0 0.00 0.00 0.00 32 1010.6
20260508171058 70 345 8.0 19.0 0.00 0.00 0.00 33 1010.7
20260508170557 70 359 9.0 19.0 0.00 0.00 0.00 32 1010.7
20260508170055 70 44 9.0 16.0 0.00 0.00 0.00 34 1010.6
20260508165557 70 355 11.0 17.0 0.00 0.00 0.00 34 1010.7
20260508165052 70 350 7.0 17.0 0.00 0.00 0.00 35 1010.6
20260508164552 70 5 11.0 17.0 0.00 0.00 0.00 34 1010.6
20260508164051 69 42 8.0 17.0 0.00 0.00 0.00 36 1010.5
20260508163553 69 26 11.0 17.0 0.00 0.00 0.00 35 1010.6
20260508163049 69 1 9.0 15.0 0.00 0.00 0.00 35 1010.6
20260508162545 69 345 11.0 16.0 0.00 0.00 0.00 35 1010.6
20260508162044 69 33 9.0 16.0 0.00 0.00 0.00 37 1010.6
20260508161543 68 7 7.0 12.0 0.00 0.00 0.00 39 1010.7
20260508161043 67 27 6.0 11.0 0.00 0.00 0.00 41 1010.7
20260508160543 65 24 6.0 10.0 0.00 0.00 0.00 41 1010.8
20260508160058 65 28 3.0 7.0 0.00 0.00 0.00 43 1010.8
20260508155539 63 355 2.0 6.0 0.00 0.00 0.00 44 1010.9
20260508155036 62 355 2.0 4.0 0.00 0.00 0.00 46 1011.0
20260508154534 61 53 0.0 2.0 0.00 0.00 0.00 48 1011.0
20260508154032 60 105 0.0 3.0 0.00 0.00 0.00 49 1011.1
20260508153531 59 105 0.0 3.0 0.00 0.00 0.00 50 1011.1
20260508153030 59 105 0.0 0.0 0.00 0.00 0.00 50 1011.2
20260508152527 59 105 0.0 0.0 0.00 0.00 0.00 49 1011.3
20260508152026 59 105 0.0 2.0 0.00 0.00 0.00 49 1011.3
20260508151524 58 105 0.0 2.0 0.00 0.00 0.00 51 1011.4
20260508151023 57 105 0.0 2.0 0.00 0.00 0.00 51 1011.4
20260508150522 56 105 0.0 3.0 0.00 0.00 0.00 50 1011.5
20260508150022 55 105 0.0 3.0 0.00 0.00 0.00 50 1011.5
20260508145519 55 105 1.0 3.0 0.00 0.00 0.00 49 1011.5
20260508145020 54 105 0.0 3.0 0.00 0.00 0.00 45 1011.7
20260508144516 53 105 0.0 3.0 0.00 0.00 0.00 40 1011.6
20260508144015 52 112 1.0 3.0 0.00 0.00 0.00 23 1011.5
20260508143513 51 218 0.0 1.0 0.00 0.00 0.00 1 1011.6
20260508143010 50 218 0.0 1.0 0.00 0.00 0.00 1 1011.7
20260508142509 49 218 0.0 2.0 0.00 0.00 0.00 1 1011.6
20260508142008 47 218 0.0 2.0 0.00 0.00 0.00 1 1011.6
20260508141506 46 218 0.0 0.0 0.00 0.00 0.00 1 1011.6
20260508141004 45 218 0.0 0.0 0.00 0.00 0.00 1 1011.5
20260508140503 45 218 0.0 0.0 0.00 0.00 0.00 1 1011.6
20260508140002 44 218 0.0 1.0 0.00 0.00 0.00 1 1011.7
20260508135600 43 218 0.0 2.0 0.00 0.00 0.00 1 1011.6
20260508135058 43 218 1.0 3.0 0.00 0.00 0.00 1 1011.5
20260508134559 42 218 1.0 3.0 0.00 0.00 0.00 1 1011.5
20260508134056 41 218 0.0 0.0 0.00 0.00 0.00 1 1011.3
20260508133558 40 218 0.0 0.0 0.00 0.00 0.00 1 1011.4
20260508133058 40 218 0.0 0.0 0.00 0.00 0.00 1 1011.4
20260508132551 39 218 0.0 0.0 0.00 0.00 0.00 1 1011.4
20260508132050 37 218 0.0 0.0 0.00 0.00 0.00 1 1011.4
20260508131549 36 218 0.0 1.0 0.00 0.00 0.00 1 1011.4
20260508131047 36 218 0.0 2.0 0.00 0.00 0.00 1 1011.3
20260508130546 35 218 1.0 2.0 0.00 0.00 0.00 1 1011.2
20260508130053 35 218 0.0 2.0 0.00 0.00 0.00 1 1011.3
20260508125543 35 218 0.0 2.0 0.00 0.00 0.00 1 1011.1
20260508125042 35 218 0.0 2.0 0.00 0.00 0.00 1 1011.1
20260508124540 35 218 0.0 2.0 0.00 0.00 0.00 1 1011.1
20260508124039 35 218 0.0 0.0 0.00 0.00 0.00 1 1010.9
20260508123538 35 218 0.0 2.0 0.00 0.00 0.00 1 1010.9
20260508123036 34 218 0.0 2.0 0.00 0.00 0.00 1 1010.8
20260508122534 34 218 0.0 0.0 0.00 0.00 0.00 1 1010.7
20260508122033 35 206 0.0 2.0 0.00 0.00 0.00 1 1010.7
20260508121552 35 206 1.0 2.0 0.00 0.00 0.00 1 1010.7
20260508121029 35 206 0.0 1.0 0.00 0.00 0.00 1 1010.7
20260508120528 35 206 0.0 0.0 0.00 0.00 0.00 1 1010.6
20260508120031 35 206 0.0 0.0 0.00 0.00 0.00 1 1010.6
20260508115527 35 206 0.0 0.0 0.00 0.00 0.00 1 1010.6
20260508115024 35 206 0.0 0.0 0.00 0.00 0.00 1 1010.6
20260508114523 35 206 0.0 2.0 0.00 0.00 0.00 1 1010.5
20260508114022 36 206 0.0 2.0 0.00 0.00 0.00 1 1010.5
20260508113521 36 206 0.0 0.0 0.00 0.00 0.00 1 1010.6
20260508113019 36 205 0.0 2.0 0.00 0.00 0.00 1 1010.4
20260508112516 37 205 0.0 2.0 0.00 0.00 0.00 1 1010.5
20260508112015 38 205 0.0 2.0 0.00 0.00 0.00 1 1010.5
20260508111514 39 205 1.0 3.0 0.00 0.00 0.00 1 1010.4
20260508111013 39 205 1.0 4.0 0.00 0.00 0.00 1 1010.5
20260508110512 39 205 2.0 5.0 0.00 0.00 0.00 1 1010.5
20260508110010 38 205 2.0 5.0 0.00 0.00 0.00 1 1010.4
20260508105513 38 225 2.0 7.0 0.00 0.00 0.00 1 1010.5
20260508105008 37 253 2.0 7.0 0.00 0.00 0.00 1 1010.4
20260508104506 37 253 1.0 4.0 0.00 0.00 0.00 1 1010.4
20260508104004 37 253 2.0 4.0 0.00 0.00 0.00 1 1010.3
20260508103503 37 253 1.0 4.0 0.00 0.00 0.00 1 1010.4
20260508103005 37 253 2.0 4.0 0.00 0.00 0.00 1 1010.4
20260508102600 37 253 1.0 4.0 0.00 0.00 0.00 1 1010.4
20260508102059 37 253 2.0 4.0 0.00 0.00 0.00 1 1010.3
20260508101657 36 253 1.0 3.0 0.00 0.00 0.00 1 1010.2
20260508101056 36 253 0.0 2.0 0.00 0.00 0.00 1 1010.1
20260508100554 36 253 0.0 2.0 0.00 0.00 0.00 1 1010.0
20260508100052 36 253 1.0 2.0 0.00 0.00 0.00 1 1010.0
20260508095551 37 253 0.0 3.0 0.00 0.00 0.00 1 1010.0
20260508095053 38 253 2.0 3.0 0.00 0.00 0.00 1 1009.9
20260508094603 39 253 2.0 3.0 0.00 0.00 0.00 1 1009.9
20260508094047 40 253 0.0 2.0 0.00 0.00 0.00 1 1009.8
20260508093547 40 253 0.0 3.0 0.00 0.00 0.00 1 1009.9
20260508093045 40 253 1.0 3.0 0.00 0.00 0.00 1 1009.8
20260508092542 41 253 0.0 0.0 0.00 0.00 0.00 1 1009.8
20260508092041 41 253 0.0 0.0 0.00 0.00 0.00 1 1009.8
20260508091541 41 253 0.0 2.0 0.00 0.00 0.00 1 1009.8
20260508091039 40 253 0.0 2.0 0.00 0.00 0.00 1 1009.8
20260508090539 40 253 1.0 3.0 0.00 0.00 0.00 1 1009.8
20260508090037 41 253 2.0 3.0 0.00 0.00 0.00 1 1009.8
20260508085535 41 253 1.0 3.0 0.00 0.00 0.00 1 1009.8
20260508085033 41 253 0.0 0.0 0.00 0.00 0.00 1 1009.8
20260508084533 41 253 0.0 0.0 0.00 0.00 0.00 1 1009.9
20260508084035 41 253 0.0 0.0 0.00 0.00 0.00 1 1009.9
20260508083529 40 253 0.0 0.0 0.00 0.00 0.00 1 1009.9
20260508083046 40 253 0.0 0.0 0.00 0.00 0.00 1 1009.9
20260508082515 41 253 0.0 0.0 0.00 0.00 0.00 1 1010.0
20260508082020 41 253 0.0 0.0 0.00 0.00 0.00 1 1010.0
20260508081513 41 253 0.0 0.0 0.00 0.00 0.00 1 1010.0
20260508081010 41 253 0.0 0.0 0.00 0.00 0.00 1 1009.9
20260508080510 40 253 0.0 0.0 0.00 0.00 0.00 1 1009.9
20260508075506 40 253 0.0 0.0 0.00 0.00 0.00 3 1010.0
20260508075004 41 253 0.0 2.0 0.00 0.00 0.00 2 1009.9
20260508074502 41 253 0.0 2.0 0.00 0.00 0.00 1 1009.9
20260508074002 42 253 0.0 2.0 0.00 0.00 0.00 1 1009.9
20260508073601 42 253 0.0 2.0 0.00 0.00 0.00 1 1009.9
20260508073101 42 253 0.0 0.0 0.00 0.00 0.00 1 1009.9
20260508072558 42 253 0.0 2.0 0.00 0.00 0.00 1 1009.8
20260508072056 42 253 0.0 2.0 0.00 0.00 0.00 1 1009.7
20260508071557 42 253 1.0 2.0 0.00 0.00 0.00 1 1009.8
20260508071053 42 253 0.0 2.0 0.00 0.00 0.00 1 1009.8
20260508070552 42 253 0.0 0.0 0.00 0.00 0.00 1 1009.8
20260508070053 41 253 0.0 0.0 0.00 0.00 0.00 7 1009.8
20260508065548 41 253 0.0 1.0 0.00 0.00 0.00 16 1009.7
20260508065047 42 253 0.0 4.0 0.00 0.00 0.00 25 1009.7
20260508064604 44 253 3.0 4.0 0.00 0.00 0.00 22 1009.7
20260508064044 45 253 0.0 3.0 0.00 0.00 0.00 13 1009.7
20260508063543 45 253 2.0 3.0 0.00 0.00 0.00 12 1009.6
20260508063044 46 253 0.0 3.0 0.00 0.00 0.00 7 1009.5
20260508062540 45 253 0.0 4.0 0.00 0.00 0.00 6 1009.6
20260508062039 45 253 1.0 4.0 0.00 0.00 0.00 13 1009.6
20260508061542 45 253 1.0 4.0 0.00 0.00 0.00 14 1009.7
20260508061037 45 253 2.0 4.0 0.00 0.00 0.00 14 1009.6
20260508060537 45 253 3.0 4.0 0.00 0.00 0.00 14 1009.5
20260508060034 46 263 1.0 3.0 0.00 0.00 0.00 15 1009.5
20260508055531 47 267 2.0 3.0 0.00 0.00 0.00 10 1009.3
20260508055030 47 141 0.0 2.0 0.00 0.00 0.00 10 1009.2
20260508054529 47 141 0.0 2.0 0.00 0.00 0.00 1 1009.2
20260508054026 45 141 0.0 2.0 0.00 0.00 0.00 22 1009.2
20260508053526 45 141 0.0 5.0 0.00 0.00 0.00 37 1009.2
20260508053026 46 141 3.0 5.0 0.00 0.00 0.00 41 1009.2
20260508052525 48 359 0.0 3.0 0.00 0.00 0.00 34 1009.0
20260508052020 49 359 0.0 2.0 0.00 0.00 0.00 15 1008.9
20260508051519 49 359 0.0 1.0 0.00 0.00 0.00 6 1008.8
20260508051018 49 359 0.0 1.0 0.00 0.00 0.00 18 1008.8
20260508050516 48 359 0.0 0.0 0.00 0.00 0.00 30 1008.7
20260508050020 48 359 0.0 0.0 0.00 0.00 0.00 43 1008.8
20260508045513 49 359 0.0 0.0 0.00 0.00 0.00 44 1008.7
20260508045012 49 359 0.0 0.0 0.00 0.00 0.00 46 1008.6
20260508044511 50 359 0.0 3.0 0.00 0.00 0.00 48 1008.6
20260508044010 50 359 0.0 3.0 0.00 0.00 0.00 50 1008.6
20260508043508 51 359 1.0 5.0 0.00 0.00 0.00 49 1008.6
20260508043007 51 359 1.0 5.0 0.00 0.00 0.00 51 1008.7
20260508042505 52 359 2.0 4.0 0.00 0.00 0.00 52 1008.6
20260508042003 53 359 0.0 2.0 0.00 0.00 0.00 53 1008.7
20260508041509 53 359 0.0 2.0 0.00 0.00 0.00 53 1008.6
20260508041001 54 359 0.0 1.0 0.00 0.00 0.00 53 1008.5
20260508040559 54 359 0.0 1.0 0.00 0.00 0.00 52 1008.5
20260508040111 55 359 0.0 4.0 0.00 0.00 0.00 52 1008.4
20260508035556 56 359 0.0 4.0 0.00 0.00 0.00 52 1008.4
20260508035501 56 359 1.0 4.0 0.00 0.00 0.00 52 1008.4
20260508035057 56 359 0.0 2.0 0.00 0.00 0.00 51 1008.4
20260508034556 57 359 0.0 2.0 0.00 0.00 0.00 50 1008.4
20260508034051 58 355 0.0 2.0 0.00 0.00 0.00 49 1008.2
20260508033552 59 359 0.0 3.0 0.00 0.00 0.00 48 1008.2
20260508033048 59 359 1.0 4.0 0.00 0.00 0.00 46 1008.1
20260508032547 59 359 1.0 5.0 0.00 0.00 0.00 46 1008.0
20260508032047 59 46 0.0 0.0 0.00 0.00 0.00 48 1008.1
20260508031544 58 335 0.0 0.0 0.00 0.00 0.00 48 1008.1
20260508031044 57 11 0.0 0.0 0.00 0.00 0.00 49 1008.0
20260508030542 57 11 0.0 0.0 0.00 0.00 0.00 49 1008.0
20260508030050 57 11 0.0 0.0 0.00 0.00 0.00 50 1007.9
20260508025539 57 245 0.0 0.0 0.00 0.00 0.00 50 1007.8
20260508025038 57 245 0.0 0.0 0.00 0.00 0.00 50 1007.7
20260508024546 58 245 0.0 4.0 0.00 0.00 0.00 48 1007.6
20260508024037 59 245 2.0 6.0 0.00 0.00 0.00 47 1007.5
20260508023534 60 250 4.0 6.0 0.00 0.00 0.00 46 1007.5
20260508023036 61 242 3.0 6.0 0.00 0.00 0.00 45 1007.6
20260508022531 63 246 0.0 6.0 0.00 0.00 0.00 42 1007.5
20260508022030 64 248 2.0 6.0 0.00 0.00 0.00 40 1007.5
20260508021528 66 213 0.0 3.0 0.00 0.00 0.00 39 1007.4
20260508021029 67 247 0.0 3.0 0.00 0.00 0.00 39 1007.5
20260508020526 68 248 1.0 4.0 0.00 0.00 0.00 38 1007.5
20260508020024 69 219 1.0 4.0 0.00 0.00 0.00 36 1007.5
20260508015523 70 224 1.0 4.0 0.00 0.00 0.00 35 1007.4
20260508015021 71 224 2.0 4.0 0.00 0.00 0.00 34 1007.5
20260508014530 72 258 2.0 4.0 0.00 0.00 0.00 33 1007.5
20260508014018 72 243 2.0 5.0 0.00 0.00 0.00 33 1007.6
20260508013518 73 253 2.0 7.0 0.00 0.00 0.00 33 1007.7
20260508013015 73 226 4.0 8.0 0.00 0.00 0.00 32 1007.8
20260508012518 73 244 3.0 7.0 0.00 0.00 0.00 31 1007.7
20260508012012 73 207 3.0 7.0 0.00 0.00 0.00 31 1007.8
20260508011510 73 263 2.0 9.0 0.00 0.00 0.00 29 1007.9
20260508011009 73 240 4.0 10.0 0.00 0.00 0.00 30 1007.9
20260508010508 72 267 4.0 11.0 0.00 0.00 0.00 29 1008.0
20260508010006 72 242 0.0 4.0 0.00 0.00 0.00 31 1008.0
20260508005513 72 226 2.0 4.0 0.00 0.00 0.00 31 1008.0
20260508005004 72 174 1.0 5.0 0.00 0.00 0.00 30 1008.0
20260508004502 72 263 3.0 9.0 0.00 0.00 0.00 31 1008.2
20260508004003 73 316 5.0 9.0 0.00 0.00 0.00 29 1008.2
20260508003559 73 268 4.0 7.0 0.00 0.00 0.00 29 1008.2
20260508003112 73 274 2.0 9.0 0.00 0.00 0.00 30 1008.3
20260508002556 73 335 3.0 16.0 0.00 0.00 0.00 29 1008.4
20260508002055 73 286 8.0 16.0 0.00 0.00 0.00 29 1008.4
20260508001553 73 291 7.0 13.0 0.00 0.00 0.00 29 1008.5
20260508001053 73 286 3.0 15.0 0.00 0.00 0.00 30 1008.5
20260508000551 74 315 9.0 15.0 0.00 0.00 0.00 28 1008.6
20260508000049 74 273 9.0 13.0 0.00 0.00 0.00 29 1008.6
20260507235548 73 306 9.0 13.0 0.00 0.00 0.00 28 1008.7
20260507235046 73 307 8.0 13.0 0.00 0.00 0.00 28 1008.7
20260507234545 73 240 6.0 13.0 0.00 0.00 0.00 28 1008.7
20260507234043 73 271 5.0 12.0 0.00 0.00 0.00 28 1008.8
20260507233542 73 323 7.0 13.0 0.00 0.00 0.00 27 1008.8
20260507233041 73 280 5.0 13.0 0.00 0.00 0.00 27 1008.9
20260507232538 73 305 7.0 17.0 0.00 0.00 0.00 27 1008.9
20260507232037 73 283 9.0 17.0 0.00 0.00 0.00 27 1009.1
20260507231539 74 336 8.0 13.0 0.00 0.00 0.00 27 1009.0
20260507231034 74 350 4.0 13.0 0.00 0.00 0.00 27 1009.1
20260507230535 74 345 7.0 18.0 0.00 0.00 0.00 26 1009.2
20260507230031 74 296 11.0 18.0 0.00 0.00 0.00 26 1009.2
20260507225530 74 276 6.0 18.0 0.00 0.00 0.00 26 1009.3
20260507225032 75 5 9.0 18.0 0.00 0.00 0.00 26 1009.3
20260507224528 74 294 8.0 15.0 0.00 0.00 0.00 27 1009.4
20260507224026 74 291 5.0 14.0 0.00 0.00 0.00 26 1009.4
20260507223528 74 282 4.0 13.0 0.00 0.00 0.00 27 1009.7
20260507223023 74 355 4.0 15.0 0.00 0.00 0.00 26 1009.7
20260507222522 74 300 5.0 21.0 0.00 0.00 0.00 26 1009.8
20260507222020 74 278 13.0 21.0 0.00 0.00 0.00 28 1009.8
20260507221518 74 274 11.0 18.0 0.00 0.00 0.00 27 1010.0
20260507221018 74 335 2.0 10.0 0.00 0.00 0.00 25 1010.0
20260507220515 74 253 5.0 10.0 0.00 0.00 0.00 27 1010.1
20260507220013 74 359 3.0 12.0 0.00 0.00 0.00 28 1010.1
20260507215513 73 55 7.0 13.0 0.00 0.00 0.00 30 1010.2
20260507215010 74 94 6.0 11.0 0.00 0.00 0.00 27 1010.2
20260507214509 74 77 3.0 13.0 0.00 0.00 0.00 28 1010.3
20260507214008 73 43 9.0 13.0 0.00 0.00 0.00 29 1010.4
20260507213506 73 8 5.0 14.0 0.00 0.00 0.00 30 1010.5
20260507213005 72 20 10.0 17.0 0.00 0.00 0.00 30 1010.6
20260507212503 72 31 10.0 17.0 0.00 0.00 0.00 28 1010.6
20260507212002 73 359 7.0 16.0 0.00 0.00 0.00 29 1010.7
20260507211601 73 275 6.0 16.0 0.00 0.00 0.00 27 1010.7
20260507211058 74 32 5.0 14.0 0.00 0.00 0.00 28 1010.9
20260507210557 74 40 6.0 12.0 0.00 0.00 0.00 28 1011.0
20260507210056 74 24 5.0 13.0 0.00 0.00 0.00 27 1011.1
20260507205556 74 16 7.0 13.0 0.00 0.00 0.00 29 1011.1
20260507205052 74 328 4.0 16.0 0.00 0.00 0.00 28 1011.3
20260507204600 73 33 8.0 16.0 0.00 0.00 0.00 31 1011.4
20260507204051 72 47 6.0 11.0 0.00 0.00 0.00 29 1011.4
20260507203548 71 47 5.0 10.0 0.00 0.00 0.00 29 1011.5
20260507203048 72 7 4.0 12.0 0.00 0.00 0.00 28 1011.7
20260507202545 73 350 3.0 11.0 0.00 0.00 0.00 28 1011.7
20260507202043 73 18 6.0 11.0 0.00 0.00 0.00 27 1011.6
20260507201544 73 62 3.0 7.0 0.00 0.00 0.00 29 1011.7
20260507201041 72 74 3.0 15.0 0.00 0.00 0.00 29 1011.8
20260507200540 72 359 7.0 16.0 0.00 0.00 0.00 29 1011.8
20260507200040 71 345 8.0 13.0 0.00 0.00 0.00 30 1011.9
20260507195540 70 282 8.0 14.0 0.00 0.00 0.00 31 1011.9
20260507195040 70 240 8.0 16.0 0.00 0.00 0.00 32 1012.1
20260507194535 70 248 9.0 15.0 0.00 0.00 0.00 30 1012.0
20260507194034 69 220 4.0 12.0 0.00 0.00 0.00 31 1012.1
20260507193532 69 258 4.0 11.0 0.00 0.00 0.00 31 1012.3
20260507193032 69 219 4.0 11.0 0.00 0.00 0.00 31 1012.4
20260507192527 69 232 5.0 14.0 0.00 0.00 0.00 31 1012.4
20260507192026 70 187 7.0 19.0 0.00 0.00 0.00 31 1012.5
20260507191525 70 237 10.0 20.0 0.00 0.00 0.00 29 1012.5
20260507191027 71 245 9.0 17.0 0.00 0.00 0.00 31 1012.5
20260507190522 71 257 7.0 16.0 0.00 0.00 0.00 30 1012.7
20260507190034 70 225 8.0 16.0 0.00 0.00 0.00 30 1012.7
20260507185519 70 252 5.0 10.0 0.00 0.00 0.00 30 1012.9
20260507185020 70 219 6.0 12.0 0.00 0.00 0.00 30 1012.9
20260507184525 69 177 7.0 12.0 0.00 0.00 0.00 29 1013.0
20260507184014 70 213 7.0 13.0 0.00 0.00 0.00 32 1013.1
20260507183513 70 205 7.0 15.0 0.00 0.00 0.00 30 1013.2
20260507183018 69 203 6.0 12.0 0.00 0.00 0.00 30 1013.2
20260507182510 69 191 7.0 14.0 0.00 0.00 0.00 29 1013.4
20260507182011 69 256 10.0 14.0 0.00 0.00 0.00 30 1013.4